#timestamp,LO_Frequency,Hit,StdDev 
1587708015.2,286046998.9,N
1587708035.1,286046998.8,N
1587708036.0,286046998.8,N
1587708055.8,286046998.3,N
1587708075.7,286047001.5,N
1587708095.5,286047002.1,N
1587708115.3,286047000.8,N
1587708135.2,286046998.6,N
1587708155.0,286046997.0,N
1587708155.9,286046997.0,N
1587708175.8,286047000.8,N
1587708195.6,286046999.0,N
1587708215.4,286046997.1,N
1587708235.3,286046997.3,N
1587708255.1,286046997.7,N
1587708275.8,286046997.5,N
1587708295.7,286046999.2,N
1587708315.5,286046998.4,N
1587708335.4,286046998.1,N
1587708355.2,286047001.0,N
1587708375.0,286047002.8,N
1587708375.9,286047002.8,N
1587708395.8,286047001.0,N
1587708415.6,286046998.6,N
1587708435.4,286047002.8,N
1587708455.3,286047000.6,N
1587708475.1,286046999.8,N
1587708495.9,286046999.8,N
1587708515.7,286046999.9,N
1587708535.5,286046999.9,N
1587708555.4,286047000.3,N
1587708575.2,286047002.1,N
1587708595.1,286047002.6,N
1587708596.0,286047002.6,N
1587708615.8,286047002.3,N
1587708635.6,286047000.6,N
1587708655.5,286047000.0,N
1587708675.3,286047000.4,N
1587708695.2,286047000.9,N
1587708715.9,286047002.8,N
1587708735.7,286047002.7,N
1587708755.6,286047000.9,N
1587708775.4,286046998.2,N
1587708795.3,286046995.0,N
1587708815.1,286046995.6,N
1587708816.0,286046995.6,N
1587708835.8,286046998.7,N
1587708855.7,286046998.8,N
1587708875.5,286046998.8,N
1587708895.4,286046998.4,N
1587708915.2,286047000.8,N
1587708935.0,286047002.4,N
1587708935.9,286047002.4,N
1587708955.8,286047003.1,N
1587708975.6,286047004.2,N
1587708995.5,286047004.1,N
1587709015.3,286047001.5,N
1587709035.1,286047001.4,N
1587709085.9,286047002.7,E
1587709095.8,286046999.8,N
1587709115.7,286046997.8,P
1587709135.5,286047000.1,N
1587709155.3,286046998.1,N
1587709175.2,286046996.5,Y
1587709195.0,286047001.0,P
1587709195.9,286047001.0,N
1587709215.8,286046998.3,N
1587709235.6,286047001.2,N
1587709255.4,286047000.7,N
1587709275.3,286047000.2,N
1587709295.1,286047000.0,N
1587709315.9,286047001.0,N
1587709335.7,286046999.6,N
1587709355.5,286047002.4,N
1587709375.4,286047002.6,N
1587709395.2,286047001.5,N
1587709415.0,286047002.0,N
1587709415.9,286047002.0,N
1587709435.8,286047000.2,N
1587709455.6,286047001.6,N
1587709475.5,286046998.2,N
1587709495.3,286046998.2,N
1587709515.1,286046998.9,N
1587709535.9,286047000.2,N
1587709555.7,286047005.5,Y
1587709575.6,286047001.4,P
1587709595.4,286047002.7,P
1587709615.2,286047004.4,P
1587709635.1,286047002.7,N
1587709636.0,286047002.7,N
1587709655.8,286047001.2,N
1587709675.7,286047002.8,N
1587709695.5,286047002.8,N
1587709715.3,286046996.5,Y
1587709735.2,286046993.9,P
1587709755.0,286046995.0,N
1587709755.9,286046995.0,N
1587709775.8,286046999.2,N
1587709795.6,286046995.4,N
1587709815.4,286046996.9,N
1587709835.3,286046999.0,N
1587709855.1,286046997.7,N
1587709875.8,286046997.7,N
1587709895.7,286046995.2,N
1587709915.5,286046996.0,N
1587709935.4,286046993.9,N
1587709955.2,286046993.8,N
1587709975.0,286046994.0,N
1587709975.9,286046994.0,N
1587709995.8,286046991.8,Y
1587710015.6,286046997.4,P
1587710035.5,286046997.8,P
1587710055.3,286046996.6,P
1587710075.1,286047001.2,N
1587710095.9,286047000.0,N
1587710115.7,286047002.8,N
1587710135.5,286047000.2,N
1587710155.4,286047001.1,N
1587710175.2,286046999.2,N
1587710195.1,286046997.6,N
1587710196.0,286046997.6,N
1587710215.8,286046999.6,N
1587710235.6,286046999.6,N
1587710255.5,286046997.4,N
1587710275.3,286046997.2,N
1587710295.2,286047000.7,N
1587710315.9,286046998.3,N
1587710335.7,286046999.3,N
1587710355.6,286046995.4,N
1587710375.4,286046999.4,N
1587710395.2,286047001.1,N
1587710415.1,286046999.5,N
1587710416.0,286046999.5,N
1587710435.8,286046997.4,N
1587710455.7,286046996.7,N
1587710475.5,286046995.6,N
1587710495.3,286046997.0,N
1587710515.2,286046997.7,N
1587710535.0,286046998.9,N
1587710535.9,286046998.9,N
1587710555.8,286047001.1,N
1587710575.6,286046998.2,N
1587710595.4,286046998.5,N
1587710615.3,286047000.7,N
1587710635.1,286046996.8,N
1587710655.8,286046994.9,N
1587710675.7,286046999.4,N
1587710695.5,286046998.4,N
1587710715.4,286046998.1,N
1587710735.2,286047002.5,N
1587710755.0,286047001.3,N
1587710755.9,286047001.3,N
1587710775.8,286046998.2,N
1587710795.6,286046999.7,N
1587710815.5,286046999.3,N
1587710835.3,286046995.7,N
1587710855.2,286046993.5,Y
1587710875.9,286046999.4,P
1587710895.7,286046998.8,P
1587710915.6,286046999.6,N
1587710935.4,286046997.9,Y
1587710955.3,286046995.4,P
1587710975.1,286046995.3,N
1587710995.8,286046996.0,N
1587711015.7,286046996.4,N
1587711035.5,286046996.1,N
1587711055.4,286046997.1,N
1587711075.2,286046998.2,N
1587711095.0,286046999.5,N
1587711095.9,286046999.5,N
1587711115.8,286046997.4,N
1587711135.6,286046997.3,N
1587711155.4,286046999.5,N
1587711175.3,286047000.8,N
1587711195.1,286046999.4,N
1587711215.9,286046998.3,N
1587711235.7,286046999.6,N
1587711255.5,286046995.6,N
1587711275.4,286046997.5,N
1587711295.2,286046999.2,N
1587711315.1,286046996.7,N
1587711316.0,286046996.7,N
1587711335.8,286046998.4,N
1587711355.6,286046998.7,N
1587711375.5,286047000.8,N
1587711395.3,286047002.3,N
1587711415.1,286047003.6,N
1587711435.9,286047003.7,N
1587711455.7,286047000.5,N
1587711475.6,286047000.6,N
1587711495.4,286046998.3,N
1587711515.2,286047001.2,N
1587711535.1,286046998.4,N
1587711536.0,286046998.4,N
1587711555.8,286046998.6,N
1587711575.7,286047000.0,N
1587711595.5,286047000.7,N
